Погода в Каге

Россия / Республика Башкортостан     53°31′13″N   57°41′02″E
темп.,
°C
ветер,
м/с
пор.,
м/с
влажн.,
%
обл.,
%
осадки,
мм/ч
давл.,
гПа
погр.,
м
5 марта, пт
пт523:00−6юз61595100 2.1 10021100
02:00−4юз81794100 2.4 10001264
05:00−3зюз71595100 5.3 10011211
08:00−4зюз61395100 2.8 10031076
11:00−4юз61294100 4.7 1003847
14:00−4юз61395100 1.9 1002953
17:00−3юз71395100 4.0 10011065
20:00−2зюз61297100 3.3 10021045
6 марта, сб
сб623:00−7зсз2294100 4.3 100765
02:00−12з119760 0.0 100921
05:00−15з119851 0.0 101220
08:00−17юз119935 0.0 101420
11:00−9зюз258723 0.0 1015424
14:00−6з467823 0.0 10141245
17:00−6з468161 0.2 10141105
20:00−13зюз129575 0.1 101421
7 марта, вс
вс723:00−14ю119788 0.1 101320
02:00−12юв1195100 0.0 101120
05:00−11всв1197100 0.4 100921
08:00−11ссв2396100 1.1 1006139
11:00−9ссв2494100 2.9 1004337
14:00−7ссз4693100 1.3 1004691
17:00−10сз5988100 1.6 1007704
20:00−18з229770 0.0 101028
8 марта, пн
пн823:00−22зюз1210045 0.0 101320
02:00−21ююз2210097 0.1 101322
05:00−21ю2210099 0.1 101345
08:00−17ю31097100 0.1 1011359
11:00−10ююз61393100 0.7 1008855
14:00−6юз71592100 0.7 10061547
17:00−6зюз71383100 1.4 10071502
20:00−12юз269170 0.1 1009141
9 марта, вт
вт923:00−9ююв2119780 0.4 1009493
02:00−6ююз51495100 1.3 10041182
05:00−5ююз81793100 2.6 10011405
08:00−11зюз7177998 1.4 10031148
11:00−10зюз8158049 1.4 10071213
14:00−9зюз6118850 0.0 1010951
17:00−10зюз589175 0.2 1012723
20:00−14зюз2497100 0.1 1013133